Year,Month,Day,Hour,Minute,Value (Times are PST for temperature in C)
2008,08,17,00,00,18.30
2008,08,17,00,01,18.30
2008,08,17,00,02,18.20
2008,08,17,00,03,18.20
2008,08,17,00,04,18.20
2008,08,17,00,05,18.20
2008,08,17,00,06,18.20
2008,08,17,00,07,18.20
2008,08,17,00,08,18.20
2008,08,17,00,09,18.20
2008,08,17,00,10,18.10
2008,08,17,00,11,18.10
2008,08,17,00,12,18.10
2008,08,17,00,13,18.10
2008,08,17,00,14,18.10
2008,08,17,00,15,18.10
2008,08,17,00,16,18.10
2008,08,17,00,17,18.10
2008,08,17,00,18,18.10
2008,08,17,00,19,18.00
2008,08,17,00,20,18.00
2008,08,17,00,21,18.00
2008,08,17,00,22,18.00
2008,08,17,00,23,18.00
2008,08,17,00,24,18.00
2008,08,17,00,25,17.90
2008,08,17,00,26,17.90
2008,08,17,00,27,17.90
2008,08,17,00,28,17.90
2008,08,17,00,29,17.90
2008,08,17,00,30,17.90
2008,08,17,00,31,17.90
2008,08,17,00,32,17.90
2008,08,17,00,33,17.90
2008,08,17,00,34,17.90
2008,08,17,00,35,17.90
2008,08,17,00,36,17.90
2008,08,17,00,37,17.90
2008,08,17,00,38,17.90
2008,08,17,00,39,17.80
2008,08,17,00,40,17.80
2008,08,17,00,41,17.80
2008,08,17,00,42,17.80
2008,08,17,00,43,17.80
2008,08,17,00,44,17.80
2008,08,17,00,45,17.80
2008,08,17,00,46,17.80
2008,08,17,00,47,17.80
2008,08,17,00,48,17.80
2008,08,17,00,49,17.80
2008,08,17,00,50,17.80
2008,08,17,00,51,17.80
2008,08,17,00,52,17.80
2008,08,17,00,53,17.80
2008,08,17,00,54,17.80
2008,08,17,00,55,17.80
2008,08,17,00,56,17.70
2008,08,17,00,57,17.70
2008,08,17,00,58,17.70
2008,08,17,00,59,17.70
2008,08,17,01,00,17.70
2008,08,17,01,01,17.70
2008,08,17,01,02,17.70
2008,08,17,01,03,17.70
2008,08,17,01,04,17.70
2008,08,17,01,05,17.60
2008,08,17,01,06,17.60
2008,08,17,01,07,17.60
2008,08,17,01,08,17.60
2008,08,17,01,09,17.60
2008,08,17,01,10,17.60
2008,08,17,01,11,17.60
2008,08,17,01,12,17.60
2008,08,17,01,13,17.60
2008,08,17,01,14,17.60
2008,08,17,01,15,17.50
2008,08,17,01,16,17.50
2008,08,17,01,17,17.50
2008,08,17,01,18,17.50
2008,08,17,01,19,17.50
2008,08,17,01,20,17.50
2008,08,17,01,21,17.50
2008,08,17,01,22,17.40
2008,08,17,01,23,17.40
2008,08,17,01,24,17.40
2008,08,17,01,25,17.40
2008,08,17,01,26,17.40
2008,08,17,01,27,17.40
2008,08,17,01,28,17.40
2008,08,17,01,29,17.40
2008,08,17,01,30,17.40
2008,08,17,01,31,17.40
2008,08,17,01,32,17.40
2008,08,17,01,33,17.40
2008,08,17,01,34,17.40
2008,08,17,01,35,17.40
2008,08,17,01,36,17.30
2008,08,17,01,37,17.30
2008,08,17,01,38,17.30
2008,08,17,01,39,17.30
2008,08,17,01,40,17.30
2008,08,17,01,41,17.30
2008,08,17,01,42,17.30
2008,08,17,01,43,17.30
2008,08,17,01,44,17.30
2008,08,17,01,45,17.30
2008,08,17,01,46,17.20
2008,08,17,01,47,17.20
2008,08,17,01,48,17.20
2008,08,17,01,49,17.20
2008,08,17,01,50,17.20
2008,08,17,01,51,17.20
2008,08,17,01,52,17.20
2008,08,17,01,53,17.20
2008,08,17,01,54,17.20
2008,08,17,01,55,17.20
2008,08,17,01,56,17.20
2008,08,17,01,57,17.20
2008,08,17,01,58,17.20
2008,08,17,01,59,17.20
2008,08,17,02,00,17.20
2008,08,17,02,01,17.20
2008,08,17,02,02,17.20
2008,08,17,02,03,17.20
2008,08,17,02,04,17.20
2008,08,17,02,05,17.20
2008,08,17,02,06,17.20
2008,08,17,02,07,17.10
2008,08,17,02,08,17.10
2008,08,17,02,09,17.10
2008,08,17,02,10,17.10
2008,08,17,02,11,17.10
2008,08,17,02,12,17.10
2008,08,17,02,13,17.10
2008,08,17,02,14,17.10
2008,08,17,02,15,17.10
2008,08,17,02,16,17.10
2008,08,17,02,17,17.10
2008,08,17,02,18,17.10
2008,08,17,02,19,17.10
2008,08,17,02,20,17.10
2008,08,17,02,21,17.10
2008,08,17,02,22,17.10
2008,08,17,02,23,17.10
2008,08,17,02,24,17.10
2008,08,17,02,25,17.00
2008,08,17,02,26,17.00
2008,08,17,02,27,17.00
2008,08,17,02,28,17.00
2008,08,17,02,29,17.00
2008,08,17,02,30,17.00
2008,08,17,02,31,16.90
2008,08,17,02,32,16.90
2008,08,17,02,33,16.90
2008,08,17,02,34,16.90
2008,08,17,02,35,16.90
2008,08,17,02,36,16.90
2008,08,17,02,37,16.90
2008,08,17,02,38,16.90
2008,08,17,02,39,16.90
2008,08,17,02,40,16.90
2008,08,17,02,41,16.90
2008,08,17,02,42,16.80
2008,08,17,02,43,16.80
2008,08,17,02,44,16.80
2008,08,17,02,45,16.80
2008,08,17,02,46,16.80
2008,08,17,02,47,16.80
2008,08,17,02,48,16.80
2008,08,17,02,49,16.80
2008,08,17,02,50,16.80
2008,08,17,02,51,16.80
2008,08,17,02,52,16.80
2008,08,17,02,53,16.80
2008,08,17,02,54,16.80
2008,08,17,02,55,16.80
2008,08,17,02,56,16.80
2008,08,17,02,57,16.80
2008,08,17,02,58,16.80
2008,08,17,02,59,16.80
2008,08,17,03,00,16.80
2008,08,17,03,01,16.80
2008,08,17,03,02,16.80
2008,08,17,03,03,16.80
2008,08,17,03,04,16.80
2008,08,17,03,05,16.80
2008,08,17,03,06,16.80
2008,08,17,03,07,16.80
2008,08,17,03,08,16.80
2008,08,17,03,09,16.80
2008,08,17,03,10,16.80
2008,08,17,03,11,16.80
2008,08,17,03,12,16.80
2008,08,17,03,13,16.80
2008,08,17,03,14,16.80
2008,08,17,03,15,16.70
2008,08,17,03,16,16.70
2008,08,17,03,17,16.70
2008,08,17,03,18,16.70
2008,08,17,03,19,16.70
2008,08,17,03,20,16.70
2008,08,17,03,21,16.70
2008,08,17,03,22,16.70
2008,08,17,03,23,16.70
2008,08,17,03,24,16.70
2008,08,17,03,25,16.70
2008,08,17,03,26,16.70
2008,08,17,03,27,16.70
2008,08,17,03,28,16.60
2008,08,17,03,29,16.60
2008,08,17,03,30,16.60
2008,08,17,03,31,16.60
2008,08,17,03,32,16.60
2008,08,17,03,33,16.60
2008,08,17,03,34,16.60
2008,08,17,03,35,16.60
2008,08,17,03,36,16.60
2008,08,17,03,37,16.60
2008,08,17,03,38,16.60
2008,08,17,03,39,16.60
2008,08,17,03,40,16.50
2008,08,17,03,41,16.50
2008,08,17,03,42,16.50
2008,08,17,03,43,16.50
2008,08,17,03,44,16.40
2008,08,17,03,45,16.40
2008,08,17,03,46,16.40
2008,08,17,03,47,16.40
2008,08,17,03,48,16.40
2008,08,17,03,49,16.40
2008,08,17,03,50,16.40
2008,08,17,03,51,16.40
2008,08,17,03,52,16.40
2008,08,17,03,53,16.40
2008,08,17,03,54,16.40
2008,08,17,03,55,16.30
2008,08,17,03,56,16.40
2008,08,17,03,57,16.30
2008,08,17,03,58,16.30
2008,08,17,03,59,16.30
2008,08,17,04,00,16.30
2008,08,17,04,01,16.30
2008,08,17,04,02,16.30
2008,08,17,04,03,16.30
2008,08,17,04,04,16.30
2008,08,17,04,05,16.30
2008,08,17,04,06,16.30
2008,08,17,04,07,16.30
2008,08,17,04,08,16.30
2008,08,17,04,09,16.30
2008,08,17,04,10,16.30
2008,08,17,04,11,16.40
2008,08,17,04,12,16.40
2008,08,17,04,13,16.40
2008,08,17,04,14,16.40
2008,08,17,04,15,16.40
2008,08,17,04,16,16.40
2008,08,17,04,17,16.40
2008,08,17,04,18,16.40
2008,08,17,04,19,16.40
2008,08,17,04,20,16.40
2008,08,17,04,21,16.30
2008,08,17,04,22,16.30
2008,08,17,04,23,16.30
2008,08,17,04,24,16.30
2008,08,17,04,25,16.30
2008,08,17,04,26,16.30
2008,08,17,04,27,16.30
2008,08,17,04,28,16.30
2008,08,17,04,29,16.30
2008,08,17,04,30,16.30
2008,08,17,04,31,16.30
2008,08,17,04,32,16.30
2008,08,17,04,33,16.30
2008,08,17,04,34,16.30
2008,08,17,04,35,16.30
2008,08,17,04,36,16.20
2008,08,17,04,37,16.30
2008,08,17,04,38,16.30
2008,08,17,04,39,16.30
2008,08,17,04,40,16.30
2008,08,17,04,41,16.30
2008,08,17,04,42,16.30
2008,08,17,04,43,16.30
2008,08,17,04,44,16.30
2008,08,17,04,45,16.30
2008,08,17,04,46,16.30
2008,08,17,04,47,16.30
2008,08,17,04,48,16.30
2008,08,17,04,49,16.30
2008,08,17,04,50,16.30
2008,08,17,04,51,16.30
2008,08,17,04,52,16.30
2008,08,17,04,53,16.30
2008,08,17,04,54,16.30
2008,08,17,04,55,16.30
2008,08,17,04,56,16.30
2008,08,17,04,57,16.30
2008,08,17,04,58,16.30
2008,08,17,04,59,16.30
2008,08,17,05,00,16.30
2008,08,17,05,01,16.30
2008,08,17,05,02,16.20
2008,08,17,05,03,16.20
2008,08,17,05,04,16.20
2008,08,17,05,05,16.20
2008,08,17,05,06,16.20
2008,08,17,05,07,16.20
2008,08,17,05,08,16.20
2008,08,17,05,09,16.20
2008,08,17,05,10,16.20
2008,08,17,05,11,16.20
2008,08,17,05,12,16.20
2008,08,17,05,13,16.20
2008,08,17,05,14,16.20
2008,08,17,05,15,16.20
2008,08,17,05,16,16.20
2008,08,17,05,17,16.20
2008,08,17,05,18,16.30
2008,08,17,05,19,16.30
2008,08,17,05,20,16.30
2008,08,17,05,21,16.30
2008,08,17,05,22,16.30
2008,08,17,05,23,16.30
2008,08,17,05,24,16.30
2008,08,17,05,25,16.30
2008,08,17,05,26,16.30
2008,08,17,05,27,16.30
2008,08,17,05,28,16.30
2008,08,17,05,29,16.30
2008,08,17,05,30,16.30
2008,08,17,05,31,16.30
2008,08,17,05,32,16.40
2008,08,17,05,33,16.40
2008,08,17,05,34,16.40
2008,08,17,05,35,16.40
2008,08,17,05,36,16.40
2008,08,17,05,37,16.40
2008,08,17,05,38,16.40
2008,08,17,05,39,16.50
2008,08,17,05,40,16.50
2008,08,17,05,41,16.50
2008,08,17,05,42,16.50
2008,08,17,05,43,16.50
2008,08,17,05,44,16.50
2008,08,17,05,45,16.50
2008,08,17,05,46,16.60
2008,08,17,05,47,16.60
2008,08,17,05,48,16.60
2008,08,17,05,49,16.60
2008,08,17,05,50,16.60
2008,08,17,05,51,16.60
2008,08,17,05,52,16.60
2008,08,17,05,53,16.70
2008,08,17,05,54,16.70
2008,08,17,05,55,16.70
2008,08,17,05,56,16.70
2008,08,17,05,57,16.70
2008,08,17,05,58,16.70
2008,08,17,05,59,16.70
2008,08,17,06,00,16.70
2008,08,17,06,01,16.80
2008,08,17,06,02,16.80
2008,08,17,06,03,16.80
2008,08,17,06,04,16.80
2008,08,17,06,05,16.80
2008,08,17,06,06,16.80
2008,08,17,06,07,16.80
2008,08,17,06,08,16.80
2008,08,17,06,09,16.80
2008,08,17,06,10,16.80
2008,08,17,06,11,16.80
2008,08,17,06,12,16.80
2008,08,17,06,13,16.80
2008,08,17,06,14,16.80
2008,08,17,06,15,16.80
2008,08,17,06,16,16.80
2008,08,17,06,17,16.80
2008,08,17,06,18,16.80
2008,08,17,06,19,16.80
2008,08,17,06,20,16.80
2008,08,17,06,21,16.80
2008,08,17,06,22,16.80
2008,08,17,06,23,16.80
2008,08,17,06,24,16.80
2008,08,17,06,25,16.80
2008,08,17,06,26,16.80
2008,08,17,06,27,16.80
2008,08,17,06,28,16.80
2008,08,17,06,29,16.80
2008,08,17,06,30,16.90
2008,08,17,06,31,16.90
2008,08,17,06,32,16.90
2008,08,17,06,33,16.90
2008,08,17,06,34,16.90
2008,08,17,06,35,16.90
2008,08,17,06,36,17.00
2008,08,17,06,37,17.00
2008,08,17,06,38,17.00
2008,08,17,06,39,17.00
2008,08,17,06,40,17.00
2008,08,17,06,41,17.10
2008,08,17,06,42,17.10
2008,08,17,06,43,17.10
2008,08,17,06,44,17.10
2008,08,17,06,45,17.10
2008,08,17,06,46,17.10
2008,08,17,06,47,17.20
2008,08,17,06,48,17.20
2008,08,17,06,49,17.20
2008,08,17,06,50,17.20
2008,08,17,06,51,17.20
2008,08,17,06,52,17.20
2008,08,17,06,53,17.20
2008,08,17,06,54,17.20
2008,08,17,06,55,17.30
2008,08,17,06,56,17.30
2008,08,17,06,57,17.40
2008,08,17,06,58,17.40
2008,08,17,06,59,17.50
2008,08,17,07,00,17.50
2008,08,17,07,01,17.50
2008,08,17,07,02,17.60
2008,08,17,07,03,17.60
2008,08,17,07,04,17.60
2008,08,17,07,05,17.60
2008,08,17,07,06,17.60
2008,08,17,07,07,17.60
2008,08,17,07,08,17.60
2008,08,17,07,09,17.70
2008,08,17,07,10,17.70
2008,08,17,07,11,17.80
2008,08,17,07,12,17.80
2008,08,17,07,13,17.80
2008,08,17,07,14,17.80
2008,08,17,07,15,17.80
2008,08,17,07,16,17.90
2008,08,17,07,17,17.90
2008,08,17,07,18,17.90
2008,08,17,07,19,17.90
2008,08,17,07,20,17.90
2008,08,17,07,21,18.00
2008,08,17,07,22,18.00
2008,08,17,07,23,18.00
2008,08,17,07,24,18.00
2008,08,17,07,25,18.10
2008,08,17,07,26,18.10
2008,08,17,07,27,18.10
2008,08,17,07,28,18.10
2008,08,17,07,29,18.10
2008,08,17,07,30,18.10
2008,08,17,07,31,18.10
2008,08,17,07,32,18.10
2008,08,17,07,33,18.20
2008,08,17,07,34,18.20
2008,08,17,07,35,18.20
2008,08,17,07,36,18.20
2008,08,17,07,37,18.20
2008,08,17,07,38,18.20
2008,08,17,07,39,18.20
2008,08,17,07,40,18.20
2008,08,17,07,41,18.30
2008,08,17,07,42,18.30
2008,08,17,07,43,18.30
2008,08,17,07,44,18.30
2008,08,17,07,45,18.30
2008,08,17,07,46,18.30
2008,08,17,07,47,18.30
2008,08,17,07,48,18.40
2008,08,17,07,49,18.40
2008,08,17,07,50,18.40
2008,08,17,07,51,18.40
2008,08,17,07,52,18.40
2008,08,17,07,53,18.40
2008,08,17,07,54,18.50
2008,08,17,07,55,18.50
2008,08,17,07,56,18.50
2008,08,17,07,57,18.60
2008,08,17,07,58,18.60
2008,08,17,07,59,18.60
2008,08,17,08,00,18.70
2008,08,17,08,01,18.70
2008,08,17,08,02,18.70
2008,08,17,08,03,18.80
2008,08,17,08,04,18.80
2008,08,17,08,05,18.80
2008,08,17,08,06,18.80
2008,08,17,08,07,18.90
2008,08,17,08,08,18.90
2008,08,17,08,09,18.90
2008,08,17,08,10,19.00
2008,08,17,08,11,19.10
2008,08,17,08,12,19.20
2008,08,17,08,13,19.30
2008,08,17,08,14,19.40
2008,08,17,08,15,19.50
2008,08,17,08,16,19.60
2008,08,17,08,17,19.60
2008,08,17,08,18,19.70
2008,08,17,08,19,19.80
2008,08,17,08,20,19.90
2008,08,17,08,21,20.00
2008,08,17,08,22,20.10
2008,08,17,08,23,20.20
2008,08,17,08,24,20.30
2008,08,17,08,25,20.40
2008,08,17,08,26,20.50
2008,08,17,08,27,20.60
2008,08,17,08,28,20.70
2008,08,17,08,29,20.70
2008,08,17,08,30,20.80
2008,08,17,08,31,20.90
2008,08,17,08,32,20.90
2008,08,17,08,33,21.00
2008,08,17,08,34,21.00
2008,08,17,08,35,21.10
2008,08,17,08,36,21.10
2008,08,17,08,37,21.20
2008,08,17,08,38,21.20
2008,08,17,08,39,21.30
2008,08,17,08,40,21.30
2008,08,17,08,41,21.40
2008,08,17,08,42,21.50
2008,08,17,08,43,21.50
2008,08,17,08,44,21.60
2008,08,17,08,45,21.70
2008,08,17,08,46,21.80
2008,08,17,08,47,21.90
2008,08,17,08,48,22.00
2008,08,17,08,49,22.10
2008,08,17,08,50,22.20
2008,08,17,08,51,22.20
2008,08,17,08,52,22.30
2008,08,17,08,53,22.30
2008,08,17,08,54,22.40
2008,08,17,08,55,22.40
2008,08,17,08,56,22.50
2008,08,17,08,57,22.50
2008,08,17,08,58,22.50
2008,08,17,08,59,22.60
2008,08,17,09,00,22.70
2008,08,17,09,01,22.80
2008,08,17,09,02,22.90
2008,08,17,09,03,23.00
2008,08,17,09,04,23.10
2008,08,17,09,05,23.20
2008,08,17,09,06,23.30
2008,08,17,09,07,23.30
2008,08,17,09,08,23.40
2008,08,17,09,09,23.50
2008,08,17,09,10,23.60
2008,08,17,09,11,23.70
2008,08,17,09,12,23.80
2008,08,17,09,13,23.90
2008,08,17,09,14,24.00
2008,08,17,09,15,24.10
2008,08,17,09,16,24.20
2008,08,17,09,17,24.20
2008,08,17,09,18,24.20
2008,08,17,09,19,24.20
2008,08,17,09,20,24.10
2008,08,17,09,21,24.10
2008,08,17,09,22,24.00
2008,08,17,09,23,24.00
2008,08,17,09,24,24.00
2008,08,17,09,25,23.90
2008,08,17,09,26,24.00
2008,08,17,09,27,24.00
2008,08,17,09,28,24.10
2008,08,17,09,29,24.10
2008,08,17,09,30,24.20
2008,08,17,09,31,24.20
2008,08,17,09,32,24.30
2008,08,17,09,33,24.40
2008,08,17,09,34,24.50
2008,08,17,09,35,24.60
2008,08,17,09,36,24.80
2008,08,17,09,37,24.80
2008,08,17,09,38,24.90
2008,08,17,09,39,25.00
2008,08,17,09,40,25.10
2008,08,17,09,41,25.20
2008,08,17,09,42,25.30
2008,08,17,09,43,25.40
2008,08,17,09,44,25.50
2008,08,17,09,45,25.60
2008,08,17,09,46,25.70
2008,08,17,09,47,25.70
2008,08,17,09,48,25.80
2008,08,17,09,49,25.80
2008,08,17,09,50,25.90
2008,08,17,09,51,25.90
2008,08,17,09,52,25.90
2008,08,17,09,53,25.90
2008,08,17,09,54,25.90
2008,08,17,09,55,25.90
2008,08,17,09,56,26.00
2008,08,17,09,57,26.00
2008,08,17,09,58,25.90
2008,08,17,09,59,25.90
2008,08,17,10,00,25.90
2008,08,17,10,01,25.90
2008,08,17,10,02,25.90
2008,08,17,10,03,25.90
2008,08,17,10,04,25.90
2008,08,17,10,05,25.90
2008,08,17,10,06,25.90
2008,08,17,10,07,25.90
2008,08,17,10,08,26.00
2008,08,17,10,09,26.10
2008,08,17,10,10,26.10
2008,08,17,10,11,26.20
2008,08,17,10,12,26.20
2008,08,17,10,13,26.30
2008,08,17,10,14,26.30
2008,08,17,10,15,26.40
2008,08,17,10,16,26.50
2008,08,17,10,17,26.50
2008,08,17,10,18,26.60
2008,08,17,10,19,26.60
2008,08,17,10,20,26.60
2008,08,17,10,21,26.60
2008,08,17,10,22,26.60
2008,08,17,10,23,26.60
2008,08,17,10,24,26.70
2008,08,17,10,25,26.70
2008,08,17,10,26,26.60
2008,08,17,10,27,26.50
2008,08,17,10,28,26.40
2008,08,17,10,29,26.40
2008,08,17,10,30,26.40
2008,08,17,10,31,26.40
2008,08,17,10,32,26.50
2008,08,17,10,33,26.50
2008,08,17,10,34,26.60
2008,08,17,10,35,26.70
2008,08,17,10,36,26.70
2008,08,17,10,37,26.80
2008,08,17,10,38,26.90
2008,08,17,10,39,27.00
2008,08,17,10,40,27.00
2008,08,17,10,41,27.10
2008,08,17,10,42,27.10
2008,08,17,10,43,27.20
2008,08,17,10,44,27.10
2008,08,17,10,45,27.10
2008,08,17,10,46,27.10
2008,08,17,10,47,27.10
2008,08,17,10,48,27.10
2008,08,17,10,49,27.10
2008,08,17,10,50,27.20
2008,08,17,10,51,27.20
2008,08,17,10,52,27.20
2008,08,17,10,53,27.30
2008,08,17,10,54,27.30
2008,08,17,10,55,27.40
2008,08,17,10,56,27.40
2008,08,17,10,57,27.40
2008,08,17,10,58,27.40
2008,08,17,10,59,27.30
2008,08,17,11,00,27.30
2008,08,17,11,01,27.30
2008,08,17,11,02,27.40
2008,08,17,11,03,27.40
2008,08,17,11,04,27.50
2008,08,17,11,05,27.50
2008,08,17,11,06,27.60
2008,08,17,11,07,27.60
2008,08,17,11,08,27.70
2008,08,17,11,09,27.80
2008,08,17,11,10,27.90
2008,08,17,11,11,28.10
2008,08,17,11,12,28.20
2008,08,17,11,13,28.30
2008,08,17,11,14,28.50
2008,08,17,11,15,28.60
2008,08,17,11,16,28.70
2008,08,17,11,17,28.80
2008,08,17,11,18,28.90
2008,08,17,11,19,28.90
2008,08,17,11,20,28.90
2008,08,17,11,21,28.90
2008,08,17,11,22,28.90
2008,08,17,11,23,28.90
2008,08,17,11,24,28.90
2008,08,17,11,25,28.90
2008,08,17,11,26,29.00
2008,08,17,11,27,29.00
2008,08,17,11,28,29.00
2008,08,17,11,29,29.00
2008,08,17,11,30,29.10
2008,08,17,11,31,29.10
2008,08,17,11,32,29.20
2008,08,17,11,33,29.30
2008,08,17,11,34,29.40
2008,08,17,11,35,29.40
2008,08,17,11,36,29.50
2008,08,17,11,37,29.50
2008,08,17,11,38,29.50
2008,08,17,11,39,29.50
2008,08,17,11,40,29.60
2008,08,17,11,41,29.60
2008,08,17,11,42,29.60
2008,08,17,11,43,29.60
2008,08,17,11,44,29.70
2008,08,17,11,45,29.60
2008,08,17,11,46,29.40
2008,08,17,11,47,29.20
2008,08,17,11,48,29.10
2008,08,17,11,49,29.00
2008,08,17,11,50,28.90
2008,08,17,11,51,28.90
2008,08,17,11,52,28.90
2008,08,17,11,53,29.00
2008,08,17,11,54,29.00
2008,08,17,11,55,29.00
2008,08,17,11,56,29.00
2008,08,17,11,57,29.10
2008,08,17,11,58,29.10
2008,08,17,11,59,29.00
2008,08,17,12,00,29.00
2008,08,17,12,01,29.00
2008,08,17,12,02,29.00
2008,08,17,12,03,28.90
2008,08,17,12,04,28.80
2008,08,17,12,05,28.80
2008,08,17,12,06,28.90
2008,08,17,12,07,28.90
2008,08,17,12,08,28.90
2008,08,17,12,09,28.90
2008,08,17,12,10,28.90
2008,08,17,12,11,28.80
2008,08,17,12,12,28.60
2008,08,17,12,13,28.50
2008,08,17,12,14,28.40
2008,08,17,12,15,28.30
2008,08,17,12,16,28.30
2008,08,17,12,17,28.30
2008,08,17,12,18,28.20
2008,08,17,12,19,28.20
2008,08,17,12,20,28.10
2008,08,17,12,21,28.00
2008,08,17,12,22,28.00
2008,08,17,12,23,27.90
2008,08,17,12,24,27.90
2008,08,17,12,25,27.90
2008,08,17,12,26,27.70
2008,08,17,12,27,27.70
2008,08,17,12,28,27.60
2008,08,17,12,29,27.60
2008,08,17,12,30,27.50
2008,08,17,12,31,27.50
2008,08,17,12,32,27.40
2008,08,17,12,33,27.30
2008,08,17,12,34,27.30
2008,08,17,12,35,27.20
2008,08,17,12,36,27.20
2008,08,17,12,37,27.30
2008,08,17,12,38,27.40
2008,08,17,12,39,27.50
2008,08,17,12,40,27.60
2008,08,17,12,41,27.70
2008,08,17,12,42,27.70
2008,08,17,12,43,27.60
2008,08,17,12,44,27.50
2008,08,17,12,45,27.50
2008,08,17,12,46,27.60
2008,08,17,12,47,27.60
2008,08,17,12,48,27.60
2008,08,17,12,49,27.70
2008,08,17,12,50,27.80
2008,08,17,12,51,27.90
2008,08,17,12,52,28.10
2008,08,17,12,53,28.10
2008,08,17,12,54,28.10
2008,08,17,12,55,27.90
2008,08,17,12,56,27.90
2008,08,17,12,57,28.00
2008,08,17,12,58,28.00
2008,08,17,12,59,28.00
2008,08,17,13,00,27.90
2008,08,17,13,01,27.90
2008,08,17,13,02,27.90
2008,08,17,13,03,27.90
2008,08,17,13,04,28.00
2008,08,17,13,05,27.90
2008,08,17,13,06,27.90
2008,08,17,13,07,27.90
2008,08,17,13,08,27.90
2008,08,17,13,09,27.90
2008,08,17,13,10,28.00
2008,08,17,13,11,28.00
2008,08,17,13,12,28.00
2008,08,17,13,13,28.00
2008,08,17,13,14,28.00
2008,08,17,13,15,27.90
2008,08,17,13,16,27.80
2008,08,17,13,17,27.80
2008,08,17,13,18,27.70
2008,08,17,13,19,27.60
2008,08,17,13,20,27.60
2008,08,17,13,21,27.60
2008,08,17,13,22,27.60
2008,08,17,13,23,27.60
2008,08,17,13,24,27.60
2008,08,17,13,25,27.60
2008,08,17,13,26,27.70
2008,08,17,13,27,27.70
2008,08,17,13,28,27.70
2008,08,17,13,29,27.80
2008,08,17,13,30,27.70
2008,08,17,13,31,27.70
2008,08,17,13,32,27.60
2008,08,17,13,33,27.60
2008,08,17,13,34,27.50
2008,08,17,13,35,27.40
2008,08,17,13,36,27.30
2008,08,17,13,37,27.30
2008,08,17,13,38,27.30
2008,08,17,13,39,27.40
2008,08,17,13,40,27.30
2008,08,17,13,41,27.20
2008,08,17,13,42,27.10
2008,08,17,13,43,27.10
2008,08,17,13,44,27.00
2008,08,17,13,45,26.90
2008,08,17,13,46,26.90
2008,08,17,13,47,26.90
2008,08,17,13,48,26.90
2008,08,17,13,49,27.00
2008,08,17,13,50,27.00
2008,08,17,13,51,27.10
2008,08,17,13,52,27.20
2008,08,17,13,53,27.20
2008,08,17,13,54,27.30
2008,08,17,13,55,27.40
2008,08,17,13,56,27.50
2008,08,17,13,57,27.40
2008,08,17,13,58,27.50
2008,08,17,13,59,27.40
2008,08,17,14,00,27.40
2008,08,17,14,01,27.30
2008,08,17,14,02,27.30
2008,08,17,14,03,27.30
2008,08,17,14,04,27.30
2008,08,17,14,05,27.40
2008,08,17,14,06,27.50
2008,08,17,14,07,27.60
2008,08,17,14,08,27.60
2008,08,17,14,09,27.60
2008,08,17,14,10,27.70
2008,08,17,14,11,27.80
2008,08,17,14,12,28.00
2008,08,17,14,13,28.10
2008,08,17,14,14,28.20
2008,08,17,14,15,28.30
2008,08,17,14,16,28.40
2008,08,17,14,17,28.50
2008,08,17,14,18,28.60
2008,08,17,14,19,28.60
2008,08,17,14,20,28.60
2008,08,17,14,21,28.70
2008,08,17,14,22,28.70
2008,08,17,14,23,28.70
2008,08,17,14,24,28.80
2008,08,17,14,25,28.80
2008,08,17,14,26,28.80
2008,08,17,14,27,28.90
2008,08,17,14,28,28.90
2008,08,17,14,29,29.00
2008,08,17,14,30,29.00
2008,08,17,14,31,28.90
2008,08,17,14,32,28.80
2008,08,17,14,33,28.80
2008,08,17,14,34,28.80
2008,08,17,14,35,28.80
2008,08,17,14,36,28.90
2008,08,17,14,37,28.90
2008,08,17,14,38,28.90
2008,08,17,14,39,29.00
2008,08,17,14,40,29.10
2008,08,17,14,41,29.10
2008,08,17,14,42,29.10
2008,08,17,14,43,29.20
2008,08,17,14,44,29.30
2008,08,17,14,45,29.30
2008,08,17,14,46,29.20
2008,08,17,14,47,29.30
2008,08,17,14,48,29.30
2008,08,17,14,49,29.30
2008,08,17,14,50,29.30
2008,08,17,14,51,29.30
2008,08,17,14,52,29.30
2008,08,17,14,53,29.30
2008,08,17,14,54,29.40
2008,08,17,14,55,29.40
2008,08,17,14,56,29.40
2008,08,17,14,57,29.50
2008,08,17,14,58,29.50
2008,08,17,14,59,29.40
2008,08,17,15,00,29.40
2008,08,17,15,01,29.50
2008,08,17,15,02,29.60
2008,08,17,15,03,29.60
2008,08,17,15,04,29.70
2008,08,17,15,05,29.70
2008,08,17,15,06,29.80
2008,08,17,15,07,29.80
2008,08,17,15,08,29.80
2008,08,17,15,09,29.80
2008,08,17,15,10,29.80
2008,08,17,15,11,29.80
2008,08,17,15,12,29.70
2008,08,17,15,13,29.50
2008,08,17,15,14,29.30
2008,08,17,15,15,29.20
2008,08,17,15,16,29.10
2008,08,17,15,17,29.10
2008,08,17,15,18,29.00
2008,08,17,15,19,29.00
2008,08,17,15,20,28.90
2008,08,17,15,21,28.90
2008,08,17,15,22,28.90
2008,08,17,15,23,28.90
2008,08,17,15,24,29.00
2008,08,17,15,25,29.00
2008,08,17,15,26,29.10
2008,08,17,15,27,29.00
2008,08,17,15,28,29.00
2008,08,17,15,29,29.00
2008,08,17,15,30,28.90
2008,08,17,15,31,28.80
2008,08,17,15,32,28.80
2008,08,17,15,33,28.80
2008,08,17,15,34,28.70
2008,08,17,15,35,28.70
2008,08,17,15,36,28.60
2008,08,17,15,37,28.60
2008,08,17,15,38,28.60
2008,08,17,15,39,28.60
2008,08,17,15,40,28.50
2008,08,17,15,41,28.40
2008,08,17,15,42,28.40
2008,08,17,15,43,28.30
2008,08,17,15,44,28.30
2008,08,17,15,45,28.20
2008,08,17,15,46,28.20
2008,08,17,15,47,28.20
2008,08,17,15,48,28.20
2008,08,17,15,49,28.10
2008,08,17,15,50,28.10
2008,08,17,15,51,28.10
2008,08,17,15,52,28.00
2008,08,17,15,53,27.90
2008,08,17,15,54,27.90
2008,08,17,15,55,27.80
2008,08,17,15,56,27.80
2008,08,17,15,57,27.80
2008,08,17,15,58,27.70
2008,08,17,15,59,27.70
2008,08,17,16,00,27.60
2008,08,17,16,01,27.60
2008,08,17,16,02,27.60
2008,08,17,16,03,27.60
2008,08,17,16,04,27.60
2008,08,17,16,05,27.60
2008,08,17,16,06,27.50
2008,08,17,16,07,27.50
2008,08,17,16,08,27.40
2008,08,17,16,09,27.30
2008,08,17,16,10,27.30
2008,08,17,16,11,27.30
2008,08,17,16,12,27.30
2008,08,17,16,13,27.30
2008,08,17,16,14,27.30
2008,08,17,16,15,27.30
2008,08,17,16,16,27.40
2008,08,17,16,17,27.40
2008,08,17,16,18,27.40
2008,08,17,16,19,27.50
2008,08,17,16,20,27.50
2008,08,17,16,21,27.40
2008,08,17,16,22,27.50
2008,08,17,16,23,27.50
2008,08,17,16,24,27.50
2008,08,17,16,25,27.50
2008,08,17,16,26,27.60
2008,08,17,16,27,27.60
2008,08,17,16,28,27.60
2008,08,17,16,29,27.70
2008,08,17,16,30,27.70
2008,08,17,16,31,27.70
2008,08,17,16,32,27.70
2008,08,17,16,33,27.70
2008,08,17,16,34,27.70
2008,08,17,16,35,27.70
2008,08,17,16,36,27.70
2008,08,17,16,37,27.70
2008,08,17,16,38,27.70
2008,08,17,16,39,27.70
2008,08,17,16,40,27.70
2008,08,17,16,41,27.70
2008,08,17,16,42,27.80
2008,08,17,16,43,27.80
2008,08,17,16,44,27.80
2008,08,17,16,45,27.80
2008,08,17,16,46,27.80
2008,08,17,16,47,27.80
2008,08,17,16,48,27.80
2008,08,17,16,49,27.90
2008,08,17,16,50,27.90
2008,08,17,16,51,27.90
2008,08,17,16,52,27.90
2008,08,17,16,53,27.80
2008,08,17,16,54,27.80
2008,08,17,16,55,27.80
2008,08,17,16,56,27.80
2008,08,17,16,57,27.80
2008,08,17,16,58,27.80
2008,08,17,16,59,27.80
2008,08,17,17,00,27.80
2008,08,17,17,01,27.80
2008,08,17,17,02,27.80
2008,08,17,17,03,27.90
2008,08,17,17,04,27.90
2008,08,17,17,05,27.90
2008,08,17,17,06,27.90
2008,08,17,17,07,28.00
2008,08,17,17,08,28.00
2008,08,17,17,09,28.00
2008,08,17,17,10,28.00
2008,08,17,17,11,28.10
2008,08,17,17,12,28.10
2008,08,17,17,13,28.10
2008,08,17,17,14,28.10
2008,08,17,17,15,28.10
2008,08,17,17,16,28.10
2008,08,17,17,17,28.10
2008,08,17,17,18,28.00
2008,08,17,17,19,27.90